CW5361 Weather Reports


Display with metric or nautical units.
time (UTC)temp
F
wind
direction
speed
MPH
gust
MPH
rain 1hr
in
rain 24hr
in
rain mn
in
humidity
%
barometer
mb
20260507070407 48 203 4.0 9.0 0.00 0.01 0.00 99 1009.2
20260507064407 48 191 3.0 11.0 0.00 0.01 0.00 99 1009.0
20260507063407 48 185 3.0 5.0 0.00 0.01 0.00 99 1009.0
20260507062408 47 182 4.0 7.0 0.00 0.01 0.00 99 1008.8
20260507061407 47 260 3.0 6.0 0.00 0.01 0.00 99 1008.8
20260507060407 47 199 2.0 9.0 0.00 0.01 0.00 99 1008.7
20260507055408 47 179 4.0 12.0 0.00 0.01 0.00 98 1008.5
20260507054408 47 176 5.0 12.0 0.00 0.01 0.00 98 1008.4
20260507052407 47 245 6.0 13.0 0.00 0.01 0.00 98 1008.1
20260507051407 47 188 6.0 14.0 0.00 0.01 0.00 98 1007.9
20260507050407 47 207 4.0 12.0 0.00 0.01 0.00 98 1007.9
20260507045412 47 175 7.0 11.0 0.00 0.01 0.00 98 1007.8
20260507044411 47 140 6.0 13.0 0.00 0.01 0.00 98 1007.8
20260507043411 47 186 5.0 11.0 0.00 0.01 0.00 98 1007.6
20260507042411 48 200 5.0 12.0 0.00 0.01 0.00 98 1007.4
20260507041411 51 245 12.0 20.0 0.00 0.00 0.00 94 1005.2
20260507040411 48 190 5.0 10.0 0.00 0.01 0.00 98 1007.2
20260507034411 48 168 5.0 10.0 0.00 0.01 0.00 97 1007.0
20260507033410 48 153 3.0 9.0 0.00 0.01 0.00 97 1007.0
20260507032411 49 168 4.0 11.0 0.00 0.01 0.00 97 1006.9
20260507031410 49 168 3.0 7.0 0.00 0.01 0.00 97 1006.8
20260507030411 49 207 5.0 10.0 0.00 0.01 0.00 97 1006.8
20260507025410 49 242 2.0 7.0 0.00 0.01 0.00 97 1006.8
20260507024410 49 241 7.0 10.0 0.00 0.01 0.00 97 1006.7
20260507023410 49 223 6.0 11.0 0.00 0.01 0.00 97 1006.8
20260507022410 50 238 10.0 13.0 0.00 0.01 0.00 97 1006.6
20260507021410 50 262 6.0 10.0 0.00 0.01 0.00 97 1006.5
20260507020410 50 245 3.0 6.0 0.00 0.01 0.00 97 1006.4
20260507015410 50 223 3.0 5.0 0.00 0.01 0.00 97 1006.2
20260507014410 50 209 4.0 6.0 0.00 0.01 0.00 97 1006.2
20260507013410 50 242 6.0 12.0 0.00 0.01 0.00 97 1006.2
20260507011410 50 228 2.0 4.0 0.00 0.01 0.00 97 1006.1
20260507010410 50 235 1.0 3.0 0.00 0.01 0.00 97 1006.0
20260507005410 50 236 1.0 4.0 0.00 0.01 0.00 96 1006.2
20260507004410 50 221 2.0 5.0 0.00 0.01 0.00 96 1006.1
20260507003410 51 245 4.0 6.0 0.00 0.01 0.00 96 1006.2
20260507001410 51 241 3.0 6.0 0.00 0.01 0.00 96 1006.1
20260507000410 51 277 2.0 4.0 0.00 0.01 0.00 96 1006.2
20260506235410 51 195 3.0 9.0 0.00 0.01 0.00 96 1006.2
20260506234409 51 181 2.0 4.0 0.00 0.01 0.00 96 1006.1
20260506233409 51 205 1.0 5.0 0.00 0.01 0.00 96 1006.2
20260506232409 51 185 2.0 5.0 0.00 0.01 0.00 96 1006.2
20260506230409 51 210 1.0 5.0 0.00 0.01 0.00 96 1006.1
20260506225409 51 217 2.0 6.0 0.00 0.01 0.00 96 1006.1
20260506224409 51 182 1.0 6.0 0.00 0.01 0.00 95 1006.1
20260506223409 51 182 2.0 7.0 0.00 0.01 0.00 95 1006.0
20260506222409 51 181 4.0 9.0 0.00 0.01 0.00 95 1005.8
20260506221409 51 239 3.0 9.0 0.00 0.01 0.00 94 1005.8
20260506220409 51 238 3.0 5.0 0.01 0.01 0.00 94 1005.7
20260506215409 52 216 3.0 7.0 0.01 0.01 0.01 93 1006.1
20260506214409 52 196 4.0 12.0 0.01 0.01 0.01 93 1006.1
20260506213409 52 203 3.0 9.0 0.01 0.01 0.01 93 1006.1
20260506212409 53 233 3.0 7.0 0.01 0.01 0.01 92 1005.9
20260506211409 53 192 3.0 9.0 0.01 0.01 0.01 92 1005.8
20260506210409 53 182 1.0 7.0 0.00 0.00 0.00 91 1005.7
20260506204409 53 226 2.0 4.0 0.00 0.00 0.00 90 1005.7
20260506203410 53 206 0.0 3.0 0.00 0.00 0.00 89 1005.7
20260506202409 53 211 2.0 6.0 0.00 0.00 0.00 89 1005.7
20260506201409 53 233 2.0 7.0 0.00 0.00 0.00 89 1005.7
20260506200408 53 231 1.0 5.0 0.00 0.00 0.00 88 1005.6
20260506195409 53 231 1.0 3.0 0.00 0.00 0.00 88 1005.6
20260506194409 53 179 1.0 3.0 0.00 0.00 0.00 87 1005.6
20260506193408 53 218 0.0 3.0 0.00 0.00 0.00 86 1005.4
20260506192409 53 226 0.0 2.0 0.00 0.00 0.00 86 1005.2
20260506191409 54 180 2.0 4.0 0.00 0.00 0.00 85 1004.8
20260506190408 54 217 2.0 5.0 0.00 0.00 0.00 84 1004.8
20260506185409 54 172 1.0 3.0 0.00 0.02 0.00 83 1004.8
20260506184408 54 216 1.0 3.0 0.00 0.02 0.00 82 1004.6
20260506183410 55 216 1.0 3.0 0.00 0.02 0.00 79 1004.6
20260506182408 55 240 0.0 0.0 0.00 0.02 0.00 77 1004.5
20260506181409 55 240 0.0 1.0 0.00 0.02 0.00 76 1004.4
20260506180408 55 240 0.0 0.0 0.00 0.02 0.00 75 1004.4
20260506175408 55 243 0.0 3.0 0.00 0.36 0.00 75 1004.4
20260506173408 56 195 1.0 3.0 0.00 0.36 0.00 74 1004.5
20260506171408 56 231 2.0 5.0 0.00 0.36 0.00 72 1004.3
20260506170409 56 191 2.0 4.0 0.00 0.36 0.00 71 1004.1
20260506165413 57 191 2.0 6.0 0.00 0.57 0.00 70 1004.1
20260506164413 57 257 5.0 9.0 0.00 0.57 0.00 69 1004.1
20260506163413 57 217 5.0 7.0 0.00 0.57 0.00 68 1004.2
20260506161413 58 194 2.0 7.0 0.00 0.57 0.00 66 1004.2
20260506160413 59 208 1.0 4.0 0.00 0.57 0.00 68 1004.0
20260506155413 59 250 4.0 6.0 0.00 0.57 0.00 61 1004.0
20260506153412 59 254 6.0 9.0 0.00 0.57 0.00 59 1004.1
20260506152412 59 238 4.0 5.0 0.00 0.57 0.00 65 1004.1
20260506151412 59 186 1.0 4.0 0.00 0.57 0.00 64 1004.2
20260506150412 60 188 1.0 6.0 0.00 0.57 0.00 64 1004.4
20260506145412 60 215 2.0 5.0 0.00 0.57 0.00 65 1004.4
20260506143413 60 224 2.0 6.0 0.00 0.57 0.00 63 1004.4
20260506142412 62 243 3.0 6.0 0.00 0.57 0.00 57 1004.4
20260506140412 61 203 3.0 6.0 0.00 0.57 0.00 60 1004.4
20260506135412 61 179 2.0 10.0 0.00 0.57 0.00 65 1004.3
20260506134412 60 225 7.0 12.0 0.00 0.57 0.00 64 1004.4
20260506133412 60 158 4.0 9.0 0.00 0.57 0.00 60 1004.7
20260506132412 61 160 5.0 11.0 0.00 0.57 0.00 66 1004.7
20260506131412 60 167 4.0 9.0 0.00 0.57 0.00 63 1005.0
20260506130411 61 174 5.0 11.0 0.00 0.57 0.00 68 1004.8
20260506125411 59 179 1.0 11.0 0.00 0.57 0.00 67 1005.0
20260506124411 60 236 5.0 11.0 0.00 0.57 0.00 63 1005.1
20260506123411 61 203 4.0 8.0 0.00 0.57 0.00 63 1004.9
20260506122411 60 264 2.0 9.0 0.00 0.57 0.00 67 1005.0
20260506121411 60 243 4.0 12.0 0.00 0.57 0.00 68 1005.0
20260506115411 61 174 8.0 13.0 0.00 0.57 0.00 68 1004.9
20260506114411 60 187 11.0 14.0 0.00 0.57 0.00 69 1005.2
20260506113411 60 184 5.0 12.0 0.00 0.57 0.00 65 1005.1
20260506110411 58 165 7.0 13.0 0.00 0.57 0.00 69 1005.4
20260506105411 59 164 8.0 12.0 0.00 0.57 0.00 74 1005.3
20260506104411 58 184 6.0 13.0 0.00 0.57 0.00 74 1005.4
20260506103411 57 226 4.0 10.0 0.00 0.57 0.00 75 1005.5
20260506101410 57 214 5.0 12.0 0.00 0.57 0.00 76 1005.4
20260506095411 55 190 4.0 6.0 0.00 0.57 0.00 79 1005.6
20260506094410 55 184 4.0 11.0 0.00 0.57 0.00 82 1005.7
20260506093410 54 195 6.0 12.0 0.00 0.57 0.00 82 1005.8
20260506092411 55 193 4.0 16.0 0.00 0.57 0.00 81 1005.7
20260506091410 56 144 4.0 8.0 0.00 0.57 0.00 80 1005.6
20260506085410 56 156 7.0 13.0 0.00 0.57 0.00 82 1005.5
20260506084410 56 167 5.0 12.0 0.00 0.57 0.00 85 1005.4
20260506083410 54 226 6.0 14.0 0.00 0.57 0.00 90 1005.4
20260506082410 53 210 5.0 10.0 0.00 0.57 0.00 89 1005.6
20260506081410 53 224 7.0 12.0 0.00 0.57 0.00 88 1005.6
20260506080410 54 212 4.0 9.0 0.00 0.57 0.00 89 1005.2
20260506072410 53 253 3.0 12.0 0.00 0.57 0.00 90 1004.9
20260506071410 54 210 5.0 10.0 0.00 0.57 0.00 91 1004.9